Regional Weather Roundup
Issued by NWS

Home | Current Version | Previous Version | Graphics & Text | Print | Product List | Glossary On
Versions: 1 2 3 4 5 6 7 8 9 10 11 12 13 14 15 16 17 18 19 20 21 22 23 24 25 26 27 28 29 30 31 32 33 34 35 36 37 38 39 40 41 42 43 44 45 46 47 48 49 50
527
ASUS45 KSLC 281010
RWRUT

UTAH REGIONAL WEATHER ROUNDUP
NATIONAL WEATHER SERVICE SALT LAKE CITY UT
400 AM MDT SAT MAY 28 2016

UTZ001>011-023>025-281100-

NORTHERN UTAH

CITY           SKY/WX    TMP DP  RH WIND       PRES   REMARKS
BRIGHAM CITY     N/A     51  45  79 N3        29.99S
HILL AFB       MOCLDY    52  43  71 SE8       29.99S
LOGAN          PTCLDY    44  43  96 N5        30.00R
OGDEN          CLOUDY    50  43  77 S5        29.98R
PROVO AIRPORT  CLOUDY    52  39  62 CALM      30.02R
SALT LAKE CITY MOCLDY    56  47  71 SE7       29.98R
VERNAL         CLEAR     44  34  67 W3        30.01S
WENDOVER       MOCLDY    54  39  58 SW5       30.00S
HEBER CITY     MOCLDY    39  37  93 CALM      30.04R
WEST JORDAN    PTCLDY    52  48  87 N3        30.00S

$$

UTZ012>022-026-027-281100-

SOUTHERN/CENTRAL UTAH

CITY           SKY/WX    TMP DP  RH WIND       PRES   REMARKS
BLANDING       PTCLDY    46  32  59 N5        30.10R
BRYCE CANYON   CLEAR     35  28  75 W8        30.12S WCI  29
CEDAR CITY     PTCLDY    48  32  53 CALM      29.98S
DELTA          PTCLDY    46  41  81 N6        29.97S
HANKSVILLE     CLEAR     46  32  57 CALM      29.99S
MILFORD        PTCLDY    47  32  56 W3        29.97R
MOAB/CYNLANDS  CLEAR     54  38  54 SE7       29.96S
PRICE          CLEAR     44  29  55 NE8       30.02S
ST GEORGE      MOSUNNY   63  27  25 SE7       29.89R

$$

REGIONAL REPORTS     COLORADO/ARIZONA

CITY           SKY/WX    TMP DP  RH WIND       PRES   REMARKS
CRAIG, CO      CLOUDY    41  37  86 CALM      30.06S
GRAND JUNCTION CLEAR     44  42  93 E5        30.01R
RIFLE          CLEAR     39  33  79 E5        30.06R
MONTROSE       CLEAR     44  33  65 SE9       30.07R
CORTEZ         CLEAR     38  31  76 E7        30.05S WCI  33
PAGE, AZ       CLEAR     59  33  37 CALM      29.95R
GRAND CANYON   CLEAR     34  23  64 CALM      30.08S
KINGMAN        CLEAR     62  28  27 SE12      29.89S
FLAGSTAFF      CLEAR     34  26  72 CALM      30.10F

$$

REGIONAL REPORTS    NEVADA/IDAHO/WYOMING

CITY           SKY/WX    TMP DP  RH WIND       PRES   REMARKS
LAS VEGAS, NV  CLEAR     73  27  18 S3        29.75S
ELY            MOCLDY    37  32  82 S3        30.04S
ELKO           CLEAR     42  36  79 CALM      30.02S
POCATELLO, ID  CLEAR     49  24  37 SW14      30.00R
BURLEY         CLEAR     42  31  64 SW12      30.00R
EVANSTON, WY   CLOUDY    42  34  73 SW7       30.06S
ROCK SPRINGS   CLOUDY    42  35  76 SW12      30.03S
KEMMERER         N/A     37  34  87 NW3       30.06R

$$




USA.gov is the U.S. government's official web portal to all federal, state and local government web resources and services.